contact:dominique.lefevre@mio.osupytheas.fr, maurice.libes@osupytheas.fr, didier.mallarino@osupytheas.fr
Project:EMSO http://www.emso-fr.org/EMSO-France
Depth: 2436.0 m
Title:EMSO Ligure Ouest : Data MII capteur MICROCAT
DateTime_Computer,Latitude,Longitude,Temperature,Conductivity,Pressure,DateTime_Instrument
DateTime_Computer,Latitude,Longitude,degC,S m-1,dbar,DateTime_Instrument
2022-11-04T00:01:45Z,42.805,6.029,13.3011,4.60057,2470.591,2022-11-04T02:03:42Z
2022-11-04T00:04:48Z,42.805,6.029,13.3012,4.60057,2470.577,2022-11-04T02:06:45Z
2022-11-04T00:07:51Z,42.805,6.029,13.3008,4.60057,2470.567,2022-11-04T02:09:48Z
2022-11-04T00:10:54Z,42.805,6.029,13.3009,4.60057,2470.553,2022-11-04T02:12:52Z
2022-11-04T00:13:57Z,42.805,6.029,13.3013,4.60058,2470.577,2022-11-04T02:15:55Z
2022-11-04T00:17:00Z,42.805,6.029,13.3011,4.60062,2470.6,2022-11-04T02:18:58Z
2022-11-04T00:20:04Z,42.805,6.029,13.3013,4.60058,2470.567,2022-11-04T02:22:01Z
2022-11-04T00:23:07Z,42.805,6.029,13.3012,4.60058,2470.6,2022-11-04T02:25:04Z
2022-11-04T00:26:10Z,42.805,6.029,13.3011,4.60061,2470.577,2022-11-04T02:28:07Z
2022-11-04T00:29:13Z,42.805,6.029,13.3013,4.60058,2470.614,2022-11-04T02:31:10Z
2022-11-04T00:32:16Z,42.805,6.029,13.3013,4.60057,2470.577,2022-11-04T02:34:13Z
2022-11-04T00:35:19Z,42.805,6.029,13.3013,4.60057,2470.591,2022-11-04T02:37:16Z
2022-11-04T00:38:22Z,42.805,6.029,13.3011,4.60060,2470.577,2022-11-04T02:40:19Z
2022-11-04T00:41:25Z,42.805,6.029,13.3012,4.60058,2470.591,2022-11-04T02:43:22Z
2022-11-04T00:44:28Z,42.805,6.029,13.3011,4.60058,2470.577,2022-11-04T02:46:25Z
2022-11-04T00:47:31Z,42.805,6.029,13.3012,4.60059,2470.577,2022-11-04T02:49:28Z
2022-11-04T00:50:34Z,42.805,6.029,13.3010,4.60058,2470.6,2022-11-04T02:52:31Z
2022-11-04T00:53:37Z,42.805,6.029,13.3014,4.60059,2470.591,2022-11-04T02:55:35Z
2022-11-04T00:56:40Z,42.805,6.029,13.3014,4.60059,2470.624,2022-11-04T02:58:38Z
2022-11-04T00:59:44Z,42.805,6.029,13.3011,4.60059,2470.6,2022-11-04T03:01:41Z
2022-11-04T01:02:47Z,42.805,6.029,13.3009,4.60059,2470.614,2022-11-04T03:04:44Z
2022-11-04T01:05:50Z,42.805,6.029,13.3011,4.60063,2470.614,2022-11-04T03:07:47Z
2022-11-04T01:08:53Z,42.805,6.029,13.3011,4.60058,2470.6,2022-11-04T03:10:50Z
2022-11-04T01:11:56Z,42.805,6.029,13.3012,4.60059,2470.637,2022-11-04T03:13:53Z
2022-11-04T01:14:59Z,42.805,6.029,13.3015,4.60062,2470.6,2022-11-04T03:16:56Z
2022-11-04T01:18:02Z,42.805,6.029,13.3010,4.60059,2470.637,2022-11-04T03:19:59Z
2022-11-04T01:21:05Z,42.805,6.029,13.3014,4.60059,2470.6,2022-11-04T03:23:02Z
2022-11-04T01:24:08Z,42.805,6.029,13.3009,4.60059,2470.624,2022-11-04T03:26:05Z
2022-11-04T01:27:11Z,42.805,6.029,13.3012,4.60059,2470.6,2022-11-04T03:29:08Z
2022-11-04T01:30:14Z,42.805,6.029,13.3016,4.60060,2470.6,2022-11-04T03:32:11Z
2022-11-04T01:33:17Z,42.805,6.029,13.3011,4.60060,2470.6,2022-11-04T03:35:14Z
2022-11-04T01:36:20Z,42.805,6.029,13.3010,4.60059,2470.637,2022-11-04T03:38:18Z
2022-11-04T01:39:23Z,42.805,6.029,13.3014,4.60059,2470.637,2022-11-04T03:41:21Z
2022-11-04T01:42:27Z,42.805,6.029,13.3010,4.60059,2470.614,2022-11-04T03:44:24Z
2022-11-04T01:45:30Z,42.805,6.029,13.3009,4.60061,2470.614,2022-11-04T03:47:27Z
2022-11-04T01:48:33Z,42.805,6.029,13.3011,4.60060,2470.637,2022-11-04T03:50:30Z
2022-11-04T01:51:36Z,42.805,6.029,13.3011,4.60058,2470.624,2022-11-04T03:53:33Z
2022-11-04T01:54:39Z,42.805,6.029,13.3011,4.60060,2470.6,2022-11-04T03:56:36Z
2022-11-04T01:57:42Z,42.805,6.029,13.3010,4.60058,2470.6,2022-11-04T03:59:39Z
2022-11-04T02:00:45Z,42.805,6.029,13.3013,4.60058,2470.6,2022-11-04T04:02:42Z
2022-11-04T02:03:48Z,42.805,6.029,13.3009,4.60057,2470.6,2022-11-04T04:05:45Z
2022-11-04T02:06:51Z,42.805,6.029,13.3010,4.60057,2470.637,2022-11-04T04:08:48Z
2022-11-04T02:09:54Z,42.805,6.029,13.3011,4.60057,2470.6,2022-11-04T04:11:51Z
2022-11-04T02:12:57Z,42.805,6.029,13.3014,4.60058,2470.646,2022-11-04T04:14:54Z
2022-11-04T02:16:00Z,42.805,6.029,13.3014,4.60059,2470.637,2022-11-04T04:17:58Z
2022-11-04T02:19:03Z,42.805,6.029,13.3009,4.60061,2470.637,2022-11-04T04:21:01Z
2022-11-04T02:22:06Z,42.805,6.029,13.3019,4.60059,2470.637,2022-11-04T04:24:04Z
2022-11-04T02:25:10Z,42.805,6.029,13.3010,4.60058,2470.624,2022-11-04T04:27:07Z
2022-11-04T02:28:13Z,42.805,6.029,13.3013,4.60059,2470.624,2022-11-04T04:30:10Z
2022-11-04T02:31:16Z,42.805,6.029,13.3011,4.60058,2470.624,2022-11-04T04:33:13Z
2022-11-04T02:34:19Z,42.805,6.029,13.3014,4.60058,2470.637,2022-11-04T04:36:16Z
2022-11-04T02:37:22Z,42.805,6.029,13.3012,4.60060,2470.624,2022-11-04T04:39:19Z
2022-11-04T02:40:25Z,42.805,6.029,13.3013,4.60058,2470.624,2022-11-04T04:42:22Z
2022-11-04T02:43:28Z,42.805,6.029,13.3009,4.60059,2470.646,2022-11-04T04:45:25Z
2022-11-04T02:46:31Z,42.805,6.029,13.3015,4.60059,2470.646,2022-11-04T04:48:28Z
2022-11-04T02:49:34Z,42.805,6.029,13.3014,4.60060,2470.661,2022-11-04T04:51:31Z
2022-11-04T02:52:37Z,42.805,6.029,13.3009,4.60060,2470.624,2022-11-04T04:54:34Z
2022-11-04T02:55:40Z,42.805,6.029,13.3015,4.60060,2470.661,2022-11-04T04:57:37Z
2022-11-04T02:58:43Z,42.805,6.029,13.3012,4.60059,2470.646,2022-11-04T05:00:41Z
2022-11-04T03:01:46Z,42.805,6.029,13.3014,4.60057,2470.646,2022-11-04T05:03:44Z
2022-11-04T03:04:50Z,42.805,6.029,13.3013,4.60061,2470.624,2022-11-04T05:06:47Z
2022-11-04T03:07:53Z,42.805,6.029,13.3009,4.60059,2470.646,2022-11-04T05:09:50Z
2022-11-04T03:10:56Z,42.805,6.029,13.3011,4.60059,2470.646,2022-11-04T05:12:53Z
2022-11-04T03:13:59Z,42.805,6.029,13.3013,4.60059,2470.684,2022-11-04T05:15:56Z
2022-11-04T03:17:02Z,42.805,6.029,13.3015,4.60061,2470.684,2022-11-04T05:18:59Z
2022-11-04T03:20:05Z,42.805,6.029,13.3014,4.60059,2470.646,2022-11-04T05:22:02Z
2022-11-04T03:23:08Z,42.805,6.029,13.3006,4.60059,2470.646,2022-11-04T05:25:05Z
2022-11-04T03:26:11Z,42.805,6.029,13.3011,4.60061,2470.624,2022-11-04T05:28:08Z
2022-11-04T03:29:14Z,42.805,6.029,13.3014,4.60062,2470.684,2022-11-04T05:31:11Z
2022-11-04T03:32:17Z,42.805,6.029,13.3013,4.60064,2470.646,2022-11-04T05:34:14Z
2022-11-04T03:35:20Z,42.805,6.029,13.3010,4.60062,2470.67,2022-11-04T05:37:17Z
2022-11-04T03:38:23Z,42.805,6.029,13.3010,4.60063,2470.637,2022-11-04T05:40:20Z
2022-11-04T03:41:26Z,42.805,6.029,13.3014,4.60061,2470.661,2022-11-04T05:43:24Z
2022-11-04T03:44:29Z,42.805,6.029,13.3010,4.60064,2470.646,2022-11-04T05:46:27Z
2022-11-04T03:47:33Z,42.805,6.029,13.3011,4.60062,2470.661,2022-11-04T05:49:30Z
2022-11-04T03:50:36Z,42.805,6.029,13.3011,4.60062,2470.67,2022-11-04T05:52:33Z
2022-11-04T03:53:39Z,42.805,6.029,13.3011,4.60062,2470.67,2022-11-04T05:55:36Z
2022-11-04T03:56:42Z,42.805,6.029,13.3011,4.60067,2470.67,2022-11-04T05:58:39Z
2022-11-04T03:59:45Z,42.805,6.029,13.3013,4.60062,2470.67,2022-11-04T06:01:42Z
2022-11-04T04:02:48Z,42.805,6.029,13.3011,4.60061,2470.684,2022-11-04T06:04:45Z
2022-11-04T04:05:51Z,42.805,6.029,13.3013,4.60063,2470.684,2022-11-04T06:07:48Z
2022-11-04T04:08:54Z,42.805,6.029,13.3013,4.60064,2470.693,2022-11-04T06:10:51Z
2022-11-04T04:11:57Z,42.805,6.029,13.3014,4.60067,2470.67,2022-11-04T06:13:54Z
2022-11-04T04:15:00Z,42.805,6.029,13.3017,4.60074,2470.67,2022-11-04T06:16:57Z
2022-11-04T04:18:03Z,42.805,6.029,13.3014,4.60068,2470.661,2022-11-04T06:20:00Z
2022-11-04T04:21:06Z,42.805,6.029,13.3009,4.60062,2470.707,2022-11-04T06:23:04Z
2022-11-04T04:24:09Z,42.805,6.029,13.3009,4.60062,2470.67,2022-11-04T06:26:07Z
2022-11-04T04:27:12Z,42.805,6.029,13.3014,4.60061,2470.67,2022-11-04T06:29:10Z
2022-11-04T04:30:16Z,42.805,6.029,13.3015,4.60064,2470.684,2022-11-04T06:32:13Z
2022-11-04T04:33:19Z,42.805,6.029,13.3007,4.60059,2470.67,2022-11-04T06:35:16Z
2022-11-04T04:36:22Z,42.805,6.029,13.3009,4.60059,2470.67,2022-11-04T06:38:19Z
2022-11-04T04:39:25Z,42.805,6.029,13.3010,4.60061,2470.646,2022-11-04T06:41:22Z
2022-11-04T04:42:28Z,42.805,6.029,13.3011,4.60066,2470.693,2022-11-04T06:44:25Z
2022-11-04T04:45:31Z,42.805,6.029,13.3011,4.60067,2470.684,2022-11-04T06:47:28Z
2022-11-04T04:48:34Z,42.805,6.029,13.3015,4.60072,2470.67,2022-11-04T06:50:31Z
2022-11-04T04:51:37Z,42.805,6.029,13.3009,4.60069,2470.646,2022-11-04T06:53:34Z
2022-11-04T04:54:40Z,42.805,6.029,13.3011,4.60061,2470.67,2022-11-04T06:56:37Z
2022-11-04T04:57:43Z,42.805,6.029,13.3012,4.60062,2470.693,2022-11-04T06:59:40Z
2022-11-04T05:00:46Z,42.805,6.029,13.3012,4.60063,2470.646,2022-11-04T07:02:43Z
2022-11-04T05:03:49Z,42.805,6.029,13.3016,4.60061,2470.656,2022-11-04T07:05:47Z
2022-11-04T05:06:52Z,42.805,6.029,13.3011,4.60063,2470.67,2022-11-04T07:08:50Z
2022-11-04T05:09:55Z,42.805,6.029,13.3012,4.60065,2470.67,2022-11-04T07:11:53Z
2022-11-04T05:12:59Z,42.805,6.029,13.3014,4.60065,2470.646,2022-11-04T07:14:56Z
2022-11-04T05:16:02Z,42.805,6.029,13.3008,4.60062,2470.67,2022-11-04T07:17:59Z
2022-11-04T05:19:05Z,42.805,6.029,13.3015,4.60059,2470.684,2022-11-04T07:21:02Z
2022-11-04T05:22:08Z,42.805,6.029,13.3014,4.60062,2470.67,2022-11-04T07:24:05Z
2022-11-04T05:25:11Z,42.805,6.029,13.3013,4.60059,2470.67,2022-11-04T07:27:08Z
2022-11-04T05:28:14Z,42.805,6.029,13.3010,4.60057,2470.646,2022-11-04T07:30:11Z
2022-11-04T05:31:17Z,42.805,6.029,13.3009,4.60057,2470.661,2022-11-04T07:33:14Z
2022-11-04T05:34:20Z,42.805,6.029,13.3011,4.60057,2470.684,2022-11-04T07:36:17Z
2022-11-04T05:37:23Z,42.805,6.029,13.3011,4.60058,2470.661,2022-11-04T07:39:20Z
2022-11-04T05:40:26Z,42.805,6.029,13.3011,4.60063,2470.693,2022-11-04T07:42:23Z
2022-11-04T05:43:29Z,42.805,6.029,13.3012,4.60060,2470.646,2022-11-04T07:45:26Z
2022-11-04T05:46:32Z,42.805,6.029,13.3011,4.60063,2470.67,2022-11-04T07:48:30Z
2022-11-04T05:49:35Z,42.805,6.029,13.3012,4.60063,2470.646,2022-11-04T07:51:33Z
2022-11-04T05:52:39Z,42.805,6.029,13.3013,4.60062,2470.661,2022-11-04T07:54:36Z
2022-11-04T05:55:42Z,42.805,6.029,13.3014,4.60060,2470.624,2022-11-04T07:57:39Z
2022-11-04T05:58:45Z,42.805,6.029,13.3017,4.60061,2470.661,2022-11-04T08:00:42Z
2022-11-04T06:01:48Z,42.805,6.029,13.3011,4.60062,2470.624,2022-11-04T08:03:45Z
2022-11-04T06:04:51Z,42.805,6.029,13.3013,4.60061,2470.646,2022-11-04T08:06:48Z
2022-11-04T06:07:54Z,42.805,6.029,13.3009,4.60062,2470.637,2022-11-04T08:09:51Z
2022-11-04T06:10:57Z,42.805,6.029,13.3006,4.60062,2470.624,2022-11-04T08:12:54Z
2022-11-04T06:14:00Z,42.805,6.029,13.3015,4.60060,2470.67,2022-11-04T08:15:57Z
2022-11-04T06:17:03Z,42.805,6.029,13.3012,4.60062,2470.646,2022-11-04T08:19:00Z
2022-11-04T06:20:06Z,42.805,6.029,13.3015,4.60066,2470.646,2022-11-04T08:22:03Z
2022-11-04T06:23:09Z,42.805,6.029,13.3015,4.60067,2470.661,2022-11-04T08:25:06Z
2022-11-04T06:26:12Z,42.805,6.029,13.3012,4.60064,2470.624,2022-11-04T08:28:09Z
2022-11-04T06:29:15Z,42.805,6.029,13.3011,4.60061,2470.661,2022-11-04T08:31:13Z
2022-11-04T06:32:18Z,42.805,6.029,13.3015,4.60066,2470.656,2022-11-04T08:34:16Z
2022-11-04T06:35:22Z,42.805,6.029,13.3014,4.60062,2470.646,2022-11-04T08:37:19Z
2022-11-04T06:38:25Z,42.805,6.029,13.3011,4.60061,2470.624,2022-11-04T08:40:22Z
2022-11-04T06:41:28Z,42.805,6.029,13.3011,4.60058,2470.624,2022-11-04T08:43:25Z
2022-11-04T06:44:31Z,42.805,6.029,13.3014,4.60059,2470.624,2022-11-04T08:46:28Z
2022-11-04T06:47:34Z,42.805,6.029,13.3017,4.60059,2470.646,2022-11-04T08:49:31Z
2022-11-04T06:50:37Z,42.805,6.029,13.3015,4.60059,2470.646,2022-11-04T08:52:34Z
2022-11-04T06:53:40Z,42.805,6.029,13.3012,4.60060,2470.646,2022-11-04T08:55:37Z
2022-11-04T06:56:43Z,42.805,6.029,13.3014,4.60060,2470.661,2022-11-04T08:58:40Z
2022-11-04T06:59:46Z,42.805,6.029,13.3011,4.60061,2470.646,2022-11-04T09:01:43Z
2022-11-04T07:02:49Z,42.805,6.029,13.3016,4.60059,2470.637,2022-11-04T09:04:46Z
2022-11-04T07:05:52Z,42.805,6.029,13.3009,4.60058,2470.646,2022-11-04T09:07:49Z
2022-11-04T07:08:55Z,42.805,6.029,13.3007,4.60057,2470.646,2022-11-04T09:10:53Z
2022-11-04T07:11:58Z,42.805,6.029,13.3017,4.60058,2470.637,2022-11-04T09:13:56Z
2022-11-04T07:15:01Z,42.805,6.029,13.3011,4.60059,2470.624,2022-11-04T09:16:59Z
2022-11-04T07:18:05Z,42.805,6.029,13.3015,4.60059,2470.661,2022-11-04T09:20:02Z
2022-11-04T07:21:08Z,42.805,6.029,13.3012,4.60062,2470.646,2022-11-04T09:23:05Z
2022-11-04T07:24:11Z,42.805,6.029,13.3014,4.60062,2470.61,2022-11-04T09:26:08Z
2022-11-04T07:27:14Z,42.805,6.029,13.3009,4.60062,2470.637,2022-11-04T09:29:11Z
2022-11-04T07:30:17Z,42.805,6.029,13.3012,4.60059,2470.6,2022-11-04T09:32:14Z
2022-11-04T07:33:20Z,42.805,6.029,13.3013,4.60060,2470.646,2022-11-04T09:35:17Z
2022-11-04T07:36:23Z,42.805,6.029,13.3015,4.60059,2470.646,2022-11-04T09:38:20Z
2022-11-04T07:39:26Z,42.805,6.029,13.3011,4.60058,2470.624,2022-11-04T09:41:23Z
2022-11-04T07:42:29Z,42.805,6.029,13.3009,4.60058,2470.61,2022-11-04T09:44:26Z
2022-11-04T07:45:32Z,42.805,6.029,13.3014,4.60059,2470.6,2022-11-04T09:47:29Z
2022-11-04T07:48:35Z,42.805,6.029,13.3014,4.60060,2470.646,2022-11-04T09:50:32Z
2022-11-04T07:51:38Z,42.805,6.029,13.3011,4.60058,2470.646,2022-11-04T09:53:36Z
2022-11-04T07:54:41Z,42.805,6.029,13.3010,4.60058,2470.637,2022-11-04T09:56:39Z
2022-11-04T07:57:45Z,42.805,6.029,13.3013,4.60057,2470.624,2022-11-04T09:59:42Z
2022-11-04T08:00:48Z,42.805,6.029,13.3015,4.60060,2470.624,2022-11-04T10:02:45Z
2022-11-04T08:03:51Z,42.805,6.029,13.3011,4.60060,2470.624,2022-11-04T10:05:48Z
2022-11-04T08:06:54Z,42.805,6.029,13.3011,4.60059,2470.6,2022-11-04T10:08:51Z
2022-11-04T08:09:57Z,42.805,6.029,13.3011,4.60057,2470.6,2022-11-04T10:11:54Z
2022-11-04T08:13:00Z,42.805,6.029,13.3013,4.60058,2470.6,2022-11-04T10:14:57Z
2022-11-04T08:16:03Z,42.805,6.029,13.3011,4.60057,2470.637,2022-11-04T10:18:00Z
2022-11-04T08:19:06Z,42.805,6.029,13.3014,4.60058,2470.624,2022-11-04T10:21:03Z
2022-11-04T08:22:09Z,42.805,6.029,13.3014,4.60057,2470.6,2022-11-04T10:24:06Z
2022-11-04T08:25:12Z,42.805,6.029,13.3012,4.60058,2470.6,2022-11-04T10:27:09Z
2022-11-04T08:28:15Z,42.805,6.029,13.3011,4.60057,2470.624,2022-11-04T10:30:12Z
2022-11-04T08:31:18Z,42.805,6.029,13.3012,4.60058,2470.6,2022-11-04T10:33:16Z
2022-11-04T08:34:21Z,42.805,6.029,13.3011,4.60059,2470.624,2022-11-04T10:36:19Z
2022-11-04T08:37:24Z,42.805,6.029,13.3014,4.60059,2470.6,2022-11-04T10:39:22Z
2022-11-04T08:40:28Z,42.805,6.029,13.3018,4.60060,2470.614,2022-11-04T10:42:25Z
2022-11-04T08:43:31Z,42.805,6.029,13.3008,4.60059,2470.577,2022-11-04T10:45:28Z
2022-11-04T08:46:34Z,42.805,6.029,13.3013,4.60057,2470.624,2022-11-04T10:48:31Z
2022-11-04T08:49:37Z,42.805,6.029,13.3008,4.60058,2470.6,2022-11-04T10:51:34Z
2022-11-04T08:52:40Z,42.805,6.029,13.3013,4.60057,2470.6,2022-11-04T10:54:37Z
2022-11-04T08:55:43Z,42.805,6.029,13.3014,4.60057,2470.591,2022-11-04T10:57:40Z
2022-11-04T08:58:46Z,42.805,6.029,13.3012,4.60057,2470.624,2022-11-04T11:00:43Z
2022-11-04T09:01:49Z,42.805,6.029,13.3013,4.60057,2470.577,2022-11-04T11:03:46Z
2022-11-04T09:04:52Z,42.805,6.029,13.3011,4.60057,2470.614,2022-11-04T11:06:49Z
2022-11-04T09:07:55Z,42.805,6.029,13.3014,4.60056,2470.586,2022-11-04T11:09:52Z
2022-11-04T09:10:58Z,42.805,6.029,13.3014,4.60056,2470.577,2022-11-04T11:12:56Z
2022-11-04T09:14:01Z,42.805,6.029,13.3013,4.60057,2470.577,2022-11-04T11:15:59Z
2022-11-04T09:17:05Z,42.805,6.029,13.3013,4.60057,2470.591,2022-11-04T11:19:02Z
2022-11-04T09:20:08Z,42.805,6.029,13.3013,4.60057,2470.577,2022-11-04T11:22:05Z
2022-11-04T09:23:11Z,42.805,6.029,13.3011,4.60057,2470.577,2022-11-04T11:25:08Z
2022-11-04T09:26:14Z,42.805,6.029,13.3014,4.60058,2470.553,2022-11-04T11:28:11Z
2022-11-04T09:29:17Z,42.805,6.029,13.3010,4.60057,2470.614,2022-11-04T11:31:14Z
2022-11-04T09:32:20Z,42.805,6.029,13.3012,4.60057,2470.591,2022-11-04T11:34:17Z
2022-11-04T09:35:23Z,42.805,6.029,13.3014,4.60057,2470.591,2022-11-04T11:37:20Z
2022-11-04T09:38:26Z,42.805,6.029,13.3006,4.60057,2470.577,2022-11-04T11:40:23Z
2022-11-04T09:41:29Z,42.805,6.029,13.3013,4.60057,2470.591,2022-11-04T11:43:26Z
2022-11-04T09:44:32Z,42.805,6.029,13.3012,4.60057,2470.591,2022-11-04T11:46:29Z
2022-11-04T09:47:35Z,42.805,6.029,13.3009,4.60057,2470.591,2022-11-04T11:49:32Z
2022-11-04T09:50:38Z,42.805,6.029,13.3012,4.60058,2470.553,2022-11-04T11:52:36Z
2022-11-04T09:53:41Z,42.805,6.029,13.3012,4.60056,2470.614,2022-11-04T11:55:39Z
2022-11-04T09:56:45Z,42.805,6.029,13.3013,4.60057,2470.577,2022-11-04T11:58:42Z
2022-11-04T09:59:48Z,42.805,6.029,13.3011,4.60057,2470.614,2022-11-04T12:01:45Z
2022-11-04T10:02:51Z,42.805,6.029,13.3014,4.60056,2470.6,2022-11-04T12:04:48Z
2022-11-04T10:05:54Z,42.805,6.029,13.3013,4.60056,2470.591,2022-11-04T12:07:51Z
2022-11-04T10:08:57Z,42.805,6.029,13.3011,4.60056,2470.614,2022-11-04T12:10:54Z
2022-11-04T10:12:00Z,42.805,6.029,13.3012,4.60056,2470.614,2022-11-04T12:13:57Z
2022-11-04T10:15:03Z,42.805,6.029,13.3016,4.60057,2470.591,2022-11-04T12:17:00Z
2022-11-04T10:18:06Z,42.805,6.029,13.3012,4.60058,2470.591,2022-11-04T12:20:03Z
2022-11-04T10:21:09Z,42.805,6.029,13.3011,4.60057,2470.577,2022-11-04T12:23:06Z
2022-11-04T10:24:12Z,42.805,6.029,13.3010,4.60056,2470.553,2022-11-04T12:26:09Z
2022-11-04T10:27:15Z,42.805,6.029,13.3010,4.60055,2470.577,2022-11-04T12:29:12Z
2022-11-04T10:30:18Z,42.805,6.029,13.3008,4.60056,2470.553,2022-11-04T12:32:16Z
2022-11-04T10:33:21Z,42.805,6.029,13.3009,4.60057,2470.591,2022-11-04T12:35:19Z
2022-11-04T10:36:25Z,42.805,6.029,13.3010,4.60056,2470.614,2022-11-04T12:38:22Z
2022-11-04T10:39:28Z,42.805,6.029,13.3012,4.60056,2470.553,2022-11-04T12:41:25Z
2022-11-04T10:42:31Z,42.805,6.029,13.3011,4.60055,2470.567,2022-11-04T12:44:28Z
2022-11-04T10:45:34Z,42.805,6.029,13.3013,4.60057,2470.6,2022-11-04T12:47:31Z
2022-11-04T10:48:37Z,42.805,6.029,13.3014,4.60056,2470.567,2022-11-04T12:50:34Z
2022-11-04T10:51:40Z,42.805,6.029,13.3013,4.60055,2470.577,2022-11-04T12:53:37Z
2022-11-04T10:54:43Z,42.805,6.029,13.3015,4.60056,2470.577,2022-11-04T12:56:40Z
2022-11-04T10:57:46Z,42.805,6.029,13.3009,4.60056,2470.553,2022-11-04T12:59:43Z
2022-11-04T11:00:49Z,42.805,6.029,13.3009,4.60055,2470.614,2022-11-04T13:02:46Z
2022-11-04T11:03:52Z,42.805,6.029,13.3013,4.60056,2470.577,2022-11-04T13:05:49Z
2022-11-04T11:06:55Z,42.805,6.029,13.3011,4.60056,2470.53,2022-11-04T13:08:53Z
2022-11-04T11:09:58Z,42.805,6.029,13.3013,4.60056,2470.577,2022-11-04T13:11:56Z
2022-11-04T11:13:01Z,42.805,6.029,13.3008,4.60056,2470.577,2022-11-04T13:14:59Z
2022-11-04T11:16:05Z,42.805,6.029,13.3009,4.60057,2470.577,2022-11-04T13:18:02Z
2022-11-04T11:19:08Z,42.805,6.029,13.3010,4.60055,2470.553,2022-11-04T13:21:05Z
2022-11-04T11:22:11Z,42.805,6.029,13.3012,4.60056,2470.577,2022-11-04T13:24:08Z
2022-11-04T11:25:14Z,42.805,6.029,13.3011,4.60057,2470.577,2022-11-04T13:27:11Z
2022-11-04T11:28:17Z,42.805,6.029,13.3011,4.60056,2470.591,2022-11-04T13:30:14Z
2022-11-04T11:31:20Z,42.805,6.029,13.3014,4.60057,2470.614,2022-11-04T13:33:17Z
2022-11-04T11:34:23Z,42.805,6.029,13.3011,4.60057,2470.614,2022-11-04T13:36:20Z
2022-11-04T11:37:26Z,42.805,6.029,13.3014,4.60058,2470.577,2022-11-04T13:39:23Z
2022-11-04T11:40:29Z,42.805,6.029,13.3014,4.60057,2470.577,2022-11-04T13:42:26Z
2022-11-04T11:43:32Z,42.805,6.029,13.3010,4.60055,2470.591,2022-11-04T13:45:29Z
2022-11-04T11:46:35Z,42.805,6.029,13.3012,4.60056,2470.614,2022-11-04T13:48:33Z
2022-11-04T11:49:38Z,42.805,6.029,13.3013,4.60055,2470.577,2022-11-04T13:51:36Z
2022-11-04T11:52:42Z,42.805,6.029,13.3010,4.60057,2470.567,2022-11-04T13:54:39Z
2022-11-04T11:55:45Z,42.805,6.029,13.3012,4.60056,2470.591,2022-11-04T13:57:42Z
2022-11-04T11:58:48Z,42.805,6.029,13.3012,4.60055,2470.6,2022-11-04T14:00:45Z
2022-11-04T12:01:51Z,42.805,6.029,13.3011,4.60057,2470.6,2022-11-04T14:03:48Z
2022-11-04T12:04:54Z,42.805,6.029,13.3013,4.60056,2470.637,2022-11-04T14:06:51Z
2022-11-04T12:07:57Z,42.805,6.029,13.3009,4.60056,2470.591,2022-11-04T14:09:54Z
2022-11-04T12:11:00Z,42.805,6.029,13.3008,4.60057,2470.591,2022-11-04T14:12:57Z
2022-11-04T12:14:03Z,42.805,6.029,13.3009,4.60056,2470.624,2022-11-04T14:16:00Z
2022-11-04T12:17:06Z,42.805,6.029,13.3018,4.60056,2470.6,2022-11-04T14:19:03Z
2022-11-04T12:20:09Z,42.805,6.029,13.3012,4.60057,2470.624,2022-11-04T14:22:06Z
2022-11-04T12:23:12Z,42.805,6.029,13.3011,4.60056,2470.614,2022-11-04T14:25:10Z
2022-11-04T12:26:15Z,42.805,6.029,13.3014,4.60056,2470.624,2022-11-04T14:28:13Z
2022-11-04T12:29:18Z,42.805,6.029,13.3014,4.60056,2470.614,2022-11-04T14:31:16Z
2022-11-04T12:32:22Z,42.805,6.029,13.3012,4.60057,2470.624,2022-11-04T14:34:19Z
2022-11-04T12:35:25Z,42.805,6.029,13.3014,4.60057,2470.614,2022-11-04T14:37:22Z
2022-11-04T12:38:28Z,42.805,6.029,13.3014,4.60057,2470.624,2022-11-04T14:40:25Z
2022-11-04T12:41:31Z,42.805,6.029,13.3009,4.60057,2470.6,2022-11-04T14:43:28Z
2022-11-04T12:44:34Z,42.805,6.029,13.3009,4.60056,2470.637,2022-11-04T14:46:31Z
2022-11-04T12:47:37Z,42.805,6.029,13.3011,4.60056,2470.6,2022-11-04T14:49:34Z
2022-11-04T12:50:40Z,42.805,6.029,13.3009,4.60057,2470.624,2022-11-04T14:52:37Z
2022-11-04T12:53:43Z,42.805,6.029,13.3013,4.60055,2470.624,2022-11-04T14:55:40Z
2022-11-04T12:56:46Z,42.805,6.029,13.3011,4.60056,2470.6,2022-11-04T14:58:43Z
2022-11-04T12:59:49Z,42.805,6.029,13.3011,4.60056,2470.661,2022-11-04T15:01:46Z
2022-11-04T13:02:52Z,42.805,6.029,13.3010,4.60056,2470.637,2022-11-04T15:04:50Z
2022-11-04T13:05:55Z,42.805,6.029,13.3014,4.60055,2470.633,2022-11-04T15:07:53Z
2022-11-04T13:08:58Z,42.805,6.029,13.3006,4.60057,2470.646,2022-11-04T15:10:56Z
2022-11-04T13:12:02Z,42.805,6.029,13.3007,4.60057,2470.6,2022-11-04T15:13:59Z
2022-11-04T13:15:05Z,42.805,6.029,13.3012,4.60056,2470.646,2022-11-04T15:17:02Z
2022-11-04T13:18:08Z,42.805,6.029,13.3014,4.60056,2470.646,2022-11-04T15:20:05Z
2022-11-04T13:21:11Z,42.805,6.029,13.3014,4.60057,2470.624,2022-11-04T15:23:08Z
2022-11-04T13:24:14Z,42.805,6.029,13.3008,4.60057,2470.646,2022-11-04T15:26:11Z
2022-11-04T13:27:17Z,42.805,6.029,13.3011,4.60057,2470.67,2022-11-04T15:29:14Z
2022-11-04T13:30:20Z,42.805,6.029,13.3011,4.60057,2470.624,2022-11-04T15:32:17Z
2022-11-04T13:33:23Z,42.805,6.029,13.3011,4.60057,2470.614,2022-11-04T15:35:20Z
2022-11-04T13:36:26Z,42.805,6.029,13.3011,4.60057,2470.684,2022-11-04T15:38:23Z
2022-11-04T13:39:29Z,42.805,6.029,13.3011,4.60057,2470.646,2022-11-04T15:41:26Z
2022-11-04T13:42:32Z,42.805,6.029,13.3014,4.60057,2470.646,2022-11-04T15:44:30Z
2022-11-04T13:45:35Z,42.805,6.029,13.3010,4.60057,2470.646,2022-11-04T15:47:33Z
2022-11-04T13:48:38Z,42.805,6.029,13.3009,4.60056,2470.67,2022-11-04T15:50:36Z
2022-11-04T13:51:42Z,42.805,6.029,13.3013,4.60056,2470.646,2022-11-04T15:53:39Z
2022-11-04T13:54:45Z,42.805,6.029,13.3011,4.60057,2470.661,2022-11-04T15:56:42Z
2022-11-04T13:57:48Z,42.805,6.029,13.3013,4.60057,2470.67,2022-11-04T15:59:45Z
2022-11-04T14:00:51Z,42.805,6.029,13.3013,4.60057,2470.693,2022-11-04T16:02:48Z
2022-11-04T14:03:54Z,42.805,6.029,13.3009,4.60057,2470.67,2022-11-04T16:05:51Z
2022-11-04T14:06:57Z,42.805,6.029,13.3010,4.60057,2470.693,2022-11-04T16:08:54Z
2022-11-04T14:10:00Z,42.805,6.029,13.3013,4.60057,2470.646,2022-11-04T16:11:57Z
2022-11-04T14:13:03Z,42.805,6.029,13.3010,4.60057,2470.67,2022-11-04T16:15:00Z
2022-11-04T14:16:06Z,42.805,6.029,13.3013,4.60057,2470.684,2022-11-04T16:18:03Z
2022-11-04T14:19:09Z,42.805,6.029,13.3011,4.60057,2470.67,2022-11-04T16:21:06Z
2022-11-04T14:22:12Z,42.805,6.029,13.3011,4.60057,2470.684,2022-11-04T16:24:10Z
2022-11-04T14:25:15Z,42.805,6.029,13.3014,4.60057,2470.707,2022-11-04T16:27:13Z
2022-11-04T14:28:19Z,42.805,6.029,13.3011,4.60057,2470.693,2022-11-04T16:30:16Z
2022-11-04T14:31:22Z,42.805,6.029,13.3011,4.60057,2470.707,2022-11-04T16:33:19Z
2022-11-04T14:34:25Z,42.805,6.029,13.3011,4.60057,2470.693,2022-11-04T16:36:22Z
2022-11-04T14:37:28Z,42.805,6.029,13.3015,4.60057,2470.693,2022-11-04T16:39:25Z
2022-11-04T14:40:31Z,42.805,6.029,13.3013,4.60057,2470.646,2022-11-04T16:42:28Z
2022-11-04T14:43:34Z,42.805,6.029,13.3011,4.60057,2470.693,2022-11-04T16:45:31Z
2022-11-04T14:46:37Z,42.805,6.029,13.3011,4.60057,2470.67,2022-11-04T16:48:34Z
2022-11-04T14:49:40Z,42.805,6.029,13.3012,4.60057,2470.693,2022-11-04T16:51:37Z
2022-11-04T14:52:43Z,42.805,6.029,13.3009,4.60057,2470.754,2022-11-04T16:54:40Z
2022-11-04T14:55:46Z,42.805,6.029,13.3014,4.60057,2470.73,2022-11-04T16:57:43Z
2022-11-04T14:58:49Z,42.805,6.029,13.3011,4.60058,2470.693,2022-11-04T17:00:47Z
2022-11-04T15:01:52Z,42.805,6.029,13.3016,4.60057,2470.717,2022-11-04T17:03:50Z